Location: Gwatt
(46.7204°N, 7.6223°E)
Time: 00:32:09
(UTC+00:00)

Vanguard 2 - Pass Details

Date: 25 January 2021
Orbit: 552 x 2938 km, 32.9° (Epoch: 03 March)

Event Time Altitude Azimuth Distance (km) Brightness Sun altitude
Rises 19:06:48 0° 246° (WSW) 2,920 11.5 -28.0°
Reaches altitude 10° 19:09:55 10° 220° (SW) 2,230 10.3 -28.5°
Maximum altitude 19:12:37 14° 187° (S) 2,174 9.9 -29.0°
Enters shadow 19:13:14 14° 180° (S) 2,243 9.8 -29.1°
Drops below altitude 10° 19:15:50 10° 157° (SSE) 2,776 - -29.5°
Sets 19:20:37 0° 135° (SE) 4,242 - -30.3°
